Year,Month,Day,Hour,Minute,Value (Times are PST for temperature in C)
2014,07,11,00,00,16.60
2014,07,11,00,01,16.50
2014,07,11,00,02,16.50
2014,07,11,00,03,16.50
2014,07,11,00,04,16.50
2014,07,11,00,05,16.40
2014,07,11,00,06,16.40
2014,07,11,00,07,16.40
2014,07,11,00,08,16.40
2014,07,11,00,09,16.40
2014,07,11,00,10,16.30
2014,07,11,00,11,16.30
2014,07,11,00,12,16.30
2014,07,11,00,13,16.30
2014,07,11,00,14,16.30
2014,07,11,00,15,16.30
2014,07,11,00,16,16.30
2014,07,11,00,17,16.30
2014,07,11,00,18,16.20
2014,07,11,00,19,16.20
2014,07,11,00,20,16.20
2014,07,11,00,21,16.20
2014,07,11,00,22,16.20
2014,07,11,00,23,16.20
2014,07,11,00,24,16.20
2014,07,11,00,25,16.20
2014,07,11,00,26,16.20
2014,07,11,00,27,16.20
2014,07,11,00,28,16.10
2014,07,11,00,29,16.10
2014,07,11,00,30,16.10
2014,07,11,00,31,16.10
2014,07,11,00,32,16.10
2014,07,11,00,33,16.10
2014,07,11,00,34,16.10
2014,07,11,00,35,16.10
2014,07,11,00,36,16.10
2014,07,11,00,37,16.00
2014,07,11,00,38,16.00
2014,07,11,00,39,16.00
2014,07,11,00,40,16.00
2014,07,11,00,41,16.00
2014,07,11,00,42,15.90
2014,07,11,00,43,15.90
2014,07,11,00,44,15.90
2014,07,11,00,45,15.90
2014,07,11,00,46,15.90
2014,07,11,00,47,15.90
2014,07,11,00,48,15.90
2014,07,11,00,49,15.90
2014,07,11,00,50,15.90
2014,07,11,00,51,15.90
2014,07,11,00,52,15.90
2014,07,11,00,53,15.90
2014,07,11,00,54,15.80
2014,07,11,00,55,15.80
2014,07,11,00,56,15.80
2014,07,11,00,57,15.80
2014,07,11,00,58,15.80
2014,07,11,00,59,15.80
2014,07,11,01,00,15.80
2014,07,11,01,01,15.80
2014,07,11,01,02,15.80
2014,07,11,01,03,15.80
2014,07,11,01,04,15.80
2014,07,11,01,05,15.80
2014,07,11,01,06,15.80
2014,07,11,01,07,15.80
2014,07,11,01,08,15.80
2014,07,11,01,09,15.80
2014,07,11,01,10,15.70
2014,07,11,01,11,15.80
2014,07,11,01,12,15.70
2014,07,11,01,13,15.70
2014,07,11,01,14,15.70
2014,07,11,01,15,15.70
2014,07,11,01,16,15.80
2014,07,11,01,17,15.80
2014,07,11,01,18,15.80
2014,07,11,01,19,15.80
2014,07,11,01,20,15.80
2014,07,11,01,21,15.80
2014,07,11,01,22,15.80
2014,07,11,01,23,15.80
2014,07,11,01,24,15.80
2014,07,11,01,25,15.80
2014,07,11,01,26,15.80
2014,07,11,01,27,15.80
2014,07,11,01,28,15.80
2014,07,11,01,29,15.80
2014,07,11,01,30,15.80
2014,07,11,01,31,15.80
2014,07,11,01,32,15.80
2014,07,11,01,33,15.70
2014,07,11,01,34,15.70
2014,07,11,01,35,15.70
2014,07,11,01,36,15.70
2014,07,11,01,37,15.60
2014,07,11,01,38,15.50
2014,07,11,01,39,15.50
2014,07,11,01,40,15.40
2014,07,11,01,41,15.30
2014,07,11,01,42,15.30
2014,07,11,01,43,15.20
2014,07,11,01,44,15.10
2014,07,11,01,45,15.10
2014,07,11,01,46,15.00
2014,07,11,01,47,14.90
2014,07,11,01,48,14.90
2014,07,11,01,49,14.80
2014,07,11,01,50,14.80
2014,07,11,01,51,14.70
2014,07,11,01,52,14.60
2014,07,11,01,53,14.60
2014,07,11,01,54,14.50
2014,07,11,01,55,14.40
2014,07,11,01,56,14.30
2014,07,11,01,57,14.30
2014,07,11,01,58,14.30
2014,07,11,01,59,14.20
2014,07,11,02,00,14.10
2014,07,11,02,01,14.10
2014,07,11,02,02,14.10
2014,07,11,02,03,14.00
2014,07,11,02,04,13.90
2014,07,11,02,05,13.90
2014,07,11,02,06,13.90
2014,07,11,02,07,13.80
2014,07,11,02,08,13.80
2014,07,11,02,09,13.80
2014,07,11,02,10,13.80
2014,07,11,02,11,13.80
2014,07,11,02,12,13.80
2014,07,11,02,13,13.80
2014,07,11,02,14,13.70
2014,07,11,02,15,13.70
2014,07,11,02,16,13.70
2014,07,11,02,17,13.70
2014,07,11,02,18,13.70
2014,07,11,02,19,13.70
2014,07,11,02,20,13.70
2014,07,11,02,21,13.70
2014,07,11,02,22,13.70
2014,07,11,02,23,13.70
2014,07,11,02,24,13.70
2014,07,11,02,25,13.70
2014,07,11,02,26,13.70
2014,07,11,02,27,13.70
2014,07,11,02,28,13.70
2014,07,11,02,29,13.70
2014,07,11,02,30,13.70
2014,07,11,02,31,13.70
2014,07,11,02,32,13.70
2014,07,11,02,33,13.70
2014,07,11,02,34,13.70
2014,07,11,02,35,13.70
2014,07,11,02,36,13.70
2014,07,11,02,37,13.70
2014,07,11,02,38,13.70
2014,07,11,02,39,13.70
2014,07,11,02,40,13.70
2014,07,11,02,41,13.70
2014,07,11,02,42,13.70
2014,07,11,02,43,13.70
2014,07,11,02,44,13.70
2014,07,11,02,45,13.70
2014,07,11,02,46,13.70
2014,07,11,02,47,13.70
2014,07,11,02,48,13.70
2014,07,11,02,49,13.70
2014,07,11,02,50,13.70
2014,07,11,02,51,13.70
2014,07,11,02,52,13.70
2014,07,11,02,53,13.70
2014,07,11,02,54,13.70
2014,07,11,02,55,13.70
2014,07,11,02,56,13.70
2014,07,11,02,57,13.70
2014,07,11,02,58,13.70
2014,07,11,02,59,13.70
2014,07,11,03,00,13.70
2014,07,11,03,01,13.70
2014,07,11,03,02,13.70
2014,07,11,03,03,13.70
2014,07,11,03,04,13.70
2014,07,11,03,05,13.70
2014,07,11,03,06,13.70
2014,07,11,03,07,13.70
2014,07,11,03,08,13.60
2014,07,11,03,09,13.60
2014,07,11,03,10,13.60
2014,07,11,03,11,13.60
2014,07,11,03,12,13.60
2014,07,11,03,13,13.60
2014,07,11,03,14,13.60
2014,07,11,03,15,13.60
2014,07,11,03,16,13.60
2014,07,11,03,17,13.60
2014,07,11,03,18,13.60
2014,07,11,03,19,13.60
2014,07,11,03,20,13.50
2014,07,11,03,21,13.50
2014,07,11,03,22,13.50
2014,07,11,03,23,13.50
2014,07,11,03,24,13.50
2014,07,11,03,25,13.50
2014,07,11,03,26,13.50
2014,07,11,03,27,13.50
2014,07,11,03,28,13.50
2014,07,11,03,29,13.50
2014,07,11,03,30,13.50
2014,07,11,03,31,13.40
2014,07,11,03,32,13.40
2014,07,11,03,33,13.40
2014,07,11,03,34,13.40
2014,07,11,03,35,13.40
2014,07,11,03,36,13.40
2014,07,11,03,37,13.40
2014,07,11,03,38,13.40
2014,07,11,03,39,13.40
2014,07,11,03,40,13.40
2014,07,11,03,41,13.40
2014,07,11,03,42,13.40
2014,07,11,03,43,13.40
2014,07,11,03,44,13.40
2014,07,11,03,45,13.40
2014,07,11,03,46,13.40
2014,07,11,03,47,13.40
2014,07,11,03,48,13.40
2014,07,11,03,49,13.40
2014,07,11,03,50,13.40
2014,07,11,03,51,13.40
2014,07,11,03,52,13.30
2014,07,11,03,53,13.30
2014,07,11,03,54,13.30
2014,07,11,03,55,13.30
2014,07,11,03,56,13.30
2014,07,11,03,57,13.30
2014,07,11,03,58,13.30
2014,07,11,03,59,13.30
2014,07,11,04,00,13.30
2014,07,11,04,01,13.30
2014,07,11,04,02,13.30
2014,07,11,04,03,13.30
2014,07,11,04,04,13.30
2014,07,11,04,05,13.30
2014,07,11,04,06,13.30
2014,07,11,04,07,13.30
2014,07,11,04,08,13.30
2014,07,11,04,09,13.30
2014,07,11,04,10,13.30
2014,07,11,04,11,13.30
2014,07,11,04,12,13.20
2014,07,11,04,13,13.30
2014,07,11,04,14,13.20
2014,07,11,04,15,13.20
2014,07,11,04,16,13.20
2014,07,11,04,17,13.20
2014,07,11,04,18,13.20
2014,07,11,04,19,13.20
2014,07,11,04,20,13.20
2014,07,11,04,21,13.20
2014,07,11,04,22,13.20
2014,07,11,04,23,13.20
2014,07,11,04,24,13.20
2014,07,11,04,25,13.20
2014,07,11,04,26,13.20
2014,07,11,04,27,13.20
2014,07,11,04,28,13.20
2014,07,11,04,29,13.20
2014,07,11,04,30,13.20
2014,07,11,04,31,13.20
2014,07,11,04,32,13.20
2014,07,11,04,33,13.20
2014,07,11,04,34,13.20
2014,07,11,04,35,13.20
2014,07,11,04,36,13.20
2014,07,11,04,37,13.20
2014,07,11,04,38,13.20
2014,07,11,04,39,13.20
2014,07,11,04,40,13.20
2014,07,11,04,41,13.20
2014,07,11,04,42,13.20
2014,07,11,04,43,13.20
2014,07,11,04,44,13.20
2014,07,11,04,45,13.20
2014,07,11,04,46,13.20
2014,07,11,04,47,13.20
2014,07,11,04,48,13.20
2014,07,11,04,49,13.30
2014,07,11,04,50,13.30
2014,07,11,04,51,13.30
2014,07,11,04,52,13.30
2014,07,11,04,53,13.30
2014,07,11,04,54,13.30
2014,07,11,04,55,13.30
2014,07,11,04,56,13.30
2014,07,11,04,57,13.40
2014,07,11,04,58,13.40
2014,07,11,04,59,13.40
2014,07,11,05,00,13.40
2014,07,11,05,01,13.40
2014,07,11,05,02,13.40
2014,07,11,05,03,13.50
2014,07,11,05,04,13.50
2014,07,11,05,05,13.50
2014,07,11,05,06,13.60
2014,07,11,05,07,13.60
2014,07,11,05,08,13.70
2014,07,11,05,09,13.70
2014,07,11,05,10,13.70
2014,07,11,05,11,13.80
2014,07,11,05,12,13.80
2014,07,11,05,13,13.80
2014,07,11,05,14,13.80
2014,07,11,05,15,13.90
2014,07,11,05,16,13.90
2014,07,11,05,17,14.00
2014,07,11,05,18,14.00
2014,07,11,05,19,14.10
2014,07,11,05,20,14.10
2014,07,11,05,21,14.20
2014,07,11,05,22,14.20
2014,07,11,05,23,14.20
2014,07,11,05,24,14.30
2014,07,11,05,25,14.30
2014,07,11,05,26,14.30
2014,07,11,05,27,14.30
2014,07,11,05,28,14.30
2014,07,11,05,29,14.40
2014,07,11,05,30,14.40
2014,07,11,05,31,14.40
2014,07,11,05,32,14.40
2014,07,11,05,33,14.40
2014,07,11,05,34,14.40
2014,07,11,05,35,14.40
2014,07,11,05,36,14.40
2014,07,11,05,37,14.40
2014,07,11,05,38,14.50
2014,07,11,05,39,14.50
2014,07,11,05,40,14.50
2014,07,11,05,41,14.50
2014,07,11,05,42,14.60
2014,07,11,05,43,14.60
2014,07,11,05,44,14.60
2014,07,11,05,45,14.60
2014,07,11,05,46,14.60
2014,07,11,05,47,14.70
2014,07,11,05,48,14.70
2014,07,11,05,49,14.70
2014,07,11,05,50,14.70
2014,07,11,05,51,14.70
2014,07,11,05,52,14.70
2014,07,11,05,53,14.70
2014,07,11,05,54,14.70
2014,07,11,05,55,14.70
2014,07,11,05,56,14.70
2014,07,11,05,57,14.80
2014,07,11,05,58,14.80
2014,07,11,05,59,14.80
2014,07,11,06,00,14.80
2014,07,11,06,01,14.80
2014,07,11,06,02,14.80
2014,07,11,06,03,14.80
2014,07,11,06,04,14.80
2014,07,11,06,05,14.90
2014,07,11,06,06,14.90
2014,07,11,06,07,14.90
2014,07,11,06,08,14.90
2014,07,11,06,09,14.90
2014,07,11,06,10,14.90
2014,07,11,06,11,15.00
2014,07,11,06,12,15.00
2014,07,11,06,13,15.00
2014,07,11,06,14,15.00
2014,07,11,06,15,15.10
2014,07,11,06,16,15.10
2014,07,11,06,17,15.10
2014,07,11,06,18,15.10
2014,07,11,06,19,15.10
2014,07,11,06,20,15.20
2014,07,11,06,21,15.20
2014,07,11,06,22,15.20
2014,07,11,06,23,15.20
2014,07,11,06,24,15.30
2014,07,11,06,25,15.30
2014,07,11,06,26,15.30
2014,07,11,06,27,15.40
2014,07,11,06,28,15.50
2014,07,11,06,29,15.50
2014,07,11,06,30,15.60
2014,07,11,06,31,15.70
2014,07,11,06,32,15.70
2014,07,11,06,33,15.80
2014,07,11,06,34,15.80
2014,07,11,06,35,15.90
2014,07,11,06,36,15.90
2014,07,11,06,37,16.00
2014,07,11,06,38,16.00
2014,07,11,06,39,16.00
2014,07,11,06,40,16.10
2014,07,11,06,41,16.10
2014,07,11,06,42,16.10
2014,07,11,06,43,16.20
2014,07,11,06,44,16.20
2014,07,11,06,45,16.20
2014,07,11,06,46,16.20
2014,07,11,06,47,16.20
2014,07,11,06,48,16.20
2014,07,11,06,49,16.30
2014,07,11,06,50,16.30
2014,07,11,06,51,16.30
2014,07,11,06,52,16.30
2014,07,11,06,53,16.30
2014,07,11,06,54,16.30
2014,07,11,06,55,16.30
2014,07,11,06,56,16.40
2014,07,11,06,57,16.40
2014,07,11,06,58,16.40
2014,07,11,06,59,16.40
2014,07,11,07,00,16.40
2014,07,11,07,01,16.40
2014,07,11,07,02,16.40
2014,07,11,07,03,16.40
2014,07,11,07,04,16.50
2014,07,11,07,05,16.50
2014,07,11,07,06,16.50
2014,07,11,07,07,16.50
2014,07,11,07,08,16.60
2014,07,11,07,09,16.60
2014,07,11,07,10,16.60
2014,07,11,07,11,16.70
2014,07,11,07,12,16.70
2014,07,11,07,13,16.70
2014,07,11,07,14,16.70
2014,07,11,07,15,16.70
2014,07,11,07,16,16.80
2014,07,11,07,17,16.80
2014,07,11,07,18,16.80
2014,07,11,07,19,16.80
2014,07,11,07,20,16.90
2014,07,11,07,21,16.90
2014,07,11,07,22,17.00
2014,07,11,07,23,17.00
2014,07,11,07,24,17.10
2014,07,11,07,25,17.10
2014,07,11,07,26,17.20
2014,07,11,07,27,17.20
2014,07,11,07,28,17.20
2014,07,11,07,29,17.30
2014,07,11,07,30,17.30
2014,07,11,07,31,17.30
2014,07,11,07,32,17.40
2014,07,11,07,33,17.40
2014,07,11,07,34,17.40
2014,07,11,07,35,17.50
2014,07,11,07,36,17.50
2014,07,11,07,37,17.60
2014,07,11,07,38,17.70
2014,07,11,07,39,17.70
2014,07,11,07,40,17.80
2014,07,11,07,41,17.80
2014,07,11,07,42,17.80
2014,07,11,07,43,17.90
2014,07,11,07,44,18.00
2014,07,11,07,45,18.00
2014,07,11,07,46,18.10
2014,07,11,07,47,18.10
2014,07,11,07,48,18.20
2014,07,11,07,49,18.30
2014,07,11,07,50,18.30
2014,07,11,07,51,18.40
2014,07,11,07,52,18.40
2014,07,11,07,53,18.50
2014,07,11,07,54,18.50
2014,07,11,07,55,18.60
2014,07,11,07,56,18.70
2014,07,11,07,57,18.70
2014,07,11,07,58,18.80
2014,07,11,07,59,18.80
2014,07,11,08,00,18.90
2014,07,11,08,01,18.90
2014,07,11,08,02,19.00
2014,07,11,08,03,19.00
2014,07,11,08,04,19.10
2014,07,11,08,05,19.10
2014,07,11,08,06,19.20
2014,07,11,08,07,19.20
2014,07,11,08,08,19.30
2014,07,11,08,09,19.30
2014,07,11,08,10,19.40
2014,07,11,08,11,19.40
2014,07,11,08,12,19.50
2014,07,11,08,13,19.60
2014,07,11,08,14,19.60
2014,07,11,08,15,19.70
2014,07,11,08,16,19.70
2014,07,11,08,17,19.80
2014,07,11,08,18,19.80
2014,07,11,08,19,19.90
2014,07,11,08,20,19.90
2014,07,11,08,21,20.00
2014,07,11,08,22,20.00
2014,07,11,08,23,20.10
2014,07,11,08,24,20.10
2014,07,11,08,25,20.20
2014,07,11,08,26,20.20
2014,07,11,08,27,20.30
2014,07,11,08,28,20.30
2014,07,11,08,29,20.40
2014,07,11,08,30,20.50
2014,07,11,08,31,20.60
2014,07,11,08,32,20.60
2014,07,11,08,33,20.70
2014,07,11,08,34,20.70
2014,07,11,08,35,20.80
2014,07,11,08,36,20.80
2014,07,11,08,37,20.90
2014,07,11,08,38,21.00
2014,07,11,08,39,21.00
2014,07,11,08,40,21.10
2014,07,11,08,41,21.20
2014,07,11,08,42,21.20
2014,07,11,08,43,21.20
2014,07,11,08,44,21.30
2014,07,11,08,45,21.30
2014,07,11,08,46,21.30
2014,07,11,08,47,21.30
2014,07,11,08,48,21.30
2014,07,11,08,49,21.30
2014,07,11,08,50,21.40
2014,07,11,08,51,21.40
2014,07,11,08,52,21.40
2014,07,11,08,53,21.40
2014,07,11,08,54,21.40
2014,07,11,08,55,21.40
2014,07,11,08,56,21.40
2014,07,11,08,57,21.50
2014,07,11,08,58,21.40
2014,07,11,08,59,21.40
2014,07,11,09,00,21.40
2014,07,11,09,01,21.40
2014,07,11,09,02,21.30
2014,07,11,09,03,21.30
2014,07,11,09,04,21.30
2014,07,11,09,05,21.20
2014,07,11,09,06,21.20
2014,07,11,09,07,21.20
2014,07,11,09,08,21.10
2014,07,11,09,09,21.10
2014,07,11,09,10,21.10
2014,07,11,09,11,21.10
2014,07,11,09,12,21.10
2014,07,11,09,13,21.10
2014,07,11,09,14,21.10
2014,07,11,09,15,21.20
2014,07,11,09,16,21.20
2014,07,11,09,17,21.20
2014,07,11,09,18,21.20
2014,07,11,09,19,21.20
2014,07,11,09,20,21.20
2014,07,11,09,21,21.20
2014,07,11,09,22,21.20
2014,07,11,09,23,21.20
2014,07,11,09,24,21.20
2014,07,11,09,25,21.10
2014,07,11,09,26,21.10
2014,07,11,09,27,21.20
2014,07,11,09,28,21.20
2014,07,11,09,29,21.20
2014,07,11,09,30,21.20
2014,07,11,09,31,21.20
2014,07,11,09,32,21.20
2014,07,11,09,33,21.20
2014,07,11,09,34,21.20
2014,07,11,09,35,21.20
2014,07,11,09,36,21.20
2014,07,11,09,37,21.20
2014,07,11,09,38,21.20
2014,07,11,09,39,21.20
2014,07,11,09,40,21.20
2014,07,11,09,41,21.30
2014,07,11,09,42,21.30
2014,07,11,09,43,21.40
2014,07,11,09,44,21.50
2014,07,11,09,45,21.50
2014,07,11,09,46,21.60
2014,07,11,09,47,21.70
2014,07,11,09,48,21.70
2014,07,11,09,49,21.80
2014,07,11,09,50,21.90
2014,07,11,09,51,21.90
2014,07,11,09,52,21.90
2014,07,11,09,53,21.90
2014,07,11,09,54,21.80
2014,07,11,09,55,21.80
2014,07,11,09,56,21.70
2014,07,11,09,57,21.70
2014,07,11,09,58,21.60
2014,07,11,09,59,21.60
2014,07,11,10,00,21.50
2014,07,11,10,01,21.50
2014,07,11,10,02,21.50
2014,07,11,10,03,21.50
2014,07,11,10,04,21.50
2014,07,11,10,05,21.60
2014,07,11,10,06,21.60
2014,07,11,10,07,21.70
2014,07,11,10,08,21.70
2014,07,11,10,09,21.80
2014,07,11,10,10,21.80
2014,07,11,10,11,21.80
2014,07,11,10,12,21.80
2014,07,11,10,13,21.80
2014,07,11,10,14,21.80
2014,07,11,10,15,21.80
2014,07,11,10,16,21.80
2014,07,11,10,17,21.80
2014,07,11,10,18,21.80
2014,07,11,10,19,21.80
2014,07,11,10,20,21.90
2014,07,11,10,21,21.90
2014,07,11,10,22,22.00
2014,07,11,10,23,22.00
2014,07,11,10,24,22.10
2014,07,11,10,25,22.10
2014,07,11,10,26,22.10
2014,07,11,10,27,22.10
2014,07,11,10,28,22.20
2014,07,11,10,29,22.20
2014,07,11,10,30,22.30
2014,07,11,10,31,22.30
2014,07,11,10,32,22.30
2014,07,11,10,33,22.40
2014,07,11,10,34,22.40
2014,07,11,10,35,22.40
2014,07,11,10,36,22.50
2014,07,11,10,37,22.70
2014,07,11,10,38,22.80
2014,07,11,10,39,22.80
2014,07,11,10,40,22.90
2014,07,11,10,41,23.00
2014,07,11,10,42,23.00
2014,07,11,10,43,23.10
2014,07,11,10,44,23.20
2014,07,11,10,45,23.30
2014,07,11,10,46,23.40
2014,07,11,10,47,23.50
2014,07,11,10,48,23.50
2014,07,11,10,49,23.50
2014,07,11,10,50,23.60
2014,07,11,10,51,23.70
2014,07,11,10,52,23.70
2014,07,11,10,53,23.60
2014,07,11,10,54,23.50
2014,07,11,10,55,23.40
2014,07,11,10,56,23.40
2014,07,11,10,57,23.40
2014,07,11,10,58,23.40
2014,07,11,10,59,23.40
2014,07,11,11,00,23.40
2014,07,11,11,01,23.30
2014,07,11,11,02,23.30
2014,07,11,11,03,23.30
2014,07,11,11,04,23.30
2014,07,11,11,05,23.20
2014,07,11,11,06,23.20
2014,07,11,11,07,23.20
2014,07,11,11,08,23.30
2014,07,11,11,09,23.30
2014,07,11,11,10,23.40
2014,07,11,11,11,23.40
2014,07,11,11,12,23.50
2014,07,11,11,13,23.50
2014,07,11,11,14,23.60
2014,07,11,11,15,23.70
2014,07,11,11,16,23.80
2014,07,11,11,17,23.90
2014,07,11,11,18,23.90
2014,07,11,11,19,24.00
2014,07,11,11,20,24.00
2014,07,11,11,21,24.10
2014,07,11,11,22,24.20
2014,07,11,11,23,24.30
2014,07,11,11,24,24.30
2014,07,11,11,25,24.30
2014,07,11,11,26,24.40
2014,07,11,11,27,24.50
2014,07,11,11,28,24.60
2014,07,11,11,29,24.60
2014,07,11,11,30,24.70
2014,07,11,11,31,24.70
2014,07,11,11,32,24.70
2014,07,11,11,33,24.70
2014,07,11,11,34,24.80
2014,07,11,11,35,24.80
2014,07,11,11,36,24.90
2014,07,11,11,37,24.90
2014,07,11,11,38,25.00
2014,07,11,11,39,25.10
2014,07,11,11,40,25.20
2014,07,11,11,41,25.20
2014,07,11,11,42,25.20
2014,07,11,11,43,25.30
2014,07,11,11,44,25.30
2014,07,11,11,45,25.30
2014,07,11,11,46,25.30
2014,07,11,11,47,25.30
2014,07,11,11,48,25.30
2014,07,11,11,49,25.30
2014,07,11,11,50,25.30
2014,07,11,11,51,25.30
2014,07,11,11,52,25.30
2014,07,11,11,53,25.30
2014,07,11,11,54,25.30
2014,07,11,11,55,25.30
2014,07,11,11,56,25.30
2014,07,11,11,57,25.30
2014,07,11,11,58,25.30
2014,07,11,11,59,25.20
2014,07,11,12,00,25.20
2014,07,11,12,01,25.20
2014,07,11,12,02,25.10
2014,07,11,12,03,25.10
2014,07,11,12,04,25.10
2014,07,11,12,05,25.10
2014,07,11,12,06,25.10
2014,07,11,12,07,25.20
2014,07,11,12,08,25.20
2014,07,11,12,09,25.30
2014,07,11,12,10,25.40
2014,07,11,12,11,25.40
2014,07,11,12,12,25.40
2014,07,11,12,13,25.40
2014,07,11,12,14,25.40
2014,07,11,12,15,25.40
2014,07,11,12,16,25.40
2014,07,11,12,17,25.50
2014,07,11,12,18,25.60
2014,07,11,12,19,25.60
2014,07,11,12,20,25.60
2014,07,11,12,21,25.60
2014,07,11,12,22,25.60
2014,07,11,12,23,25.60
2014,07,11,12,24,25.60
2014,07,11,12,25,25.50
2014,07,11,12,26,25.50
2014,07,11,12,27,25.40
2014,07,11,12,28,25.40
2014,07,11,12,29,25.40
2014,07,11,12,30,25.30
2014,07,11,12,31,25.30
2014,07,11,12,32,25.20
2014,07,11,12,33,25.20
2014,07,11,12,34,25.10
2014,07,11,12,35,25.20
2014,07,11,12,36,25.10
2014,07,11,12,37,25.10
2014,07,11,12,38,25.10
2014,07,11,12,39,25.20
2014,07,11,12,40,25.20
2014,07,11,12,41,25.30
2014,07,11,12,42,25.40
2014,07,11,12,43,25.50
2014,07,11,12,44,25.70
2014,07,11,12,45,25.90
2014,07,11,12,46,26.00
2014,07,11,12,47,26.20
2014,07,11,12,48,26.20
2014,07,11,12,49,26.30
2014,07,11,12,50,26.30
2014,07,11,12,51,26.30
2014,07,11,12,52,26.30
2014,07,11,12,53,26.30
2014,07,11,12,54,26.40
2014,07,11,12,55,26.40
2014,07,11,12,56,26.40
2014,07,11,12,57,26.50
2014,07,11,12,58,26.50
2014,07,11,12,59,26.50
2014,07,11,13,00,26.50
2014,07,11,13,01,26.50
2014,07,11,13,02,26.60
2014,07,11,13,03,26.60
2014,07,11,13,04,26.60
2014,07,11,13,05,26.60
2014,07,11,13,06,26.50
2014,07,11,13,07,26.40
2014,07,11,13,08,26.40
2014,07,11,13,09,26.40
2014,07,11,13,10,26.40
2014,07,11,13,11,26.40
2014,07,11,13,12,26.40
2014,07,11,13,13,26.40
2014,07,11,13,14,26.40
2014,07,11,13,15,26.40
2014,07,11,13,16,26.40
2014,07,11,13,17,26.40
2014,07,11,13,18,26.40
2014,07,11,13,19,26.40
2014,07,11,13,20,26.30
2014,07,11,13,21,26.30
2014,07,11,13,22,26.40
2014,07,11,13,23,26.40
2014,07,11,13,24,26.40
2014,07,11,13,25,26.50
2014,07,11,13,26,26.50
2014,07,11,13,27,26.50
2014,07,11,13,28,26.40
2014,07,11,13,29,26.40
2014,07,11,13,30,26.40
2014,07,11,13,31,26.40
2014,07,11,13,32,26.40
2014,07,11,13,33,26.40
2014,07,11,13,34,26.40
2014,07,11,13,35,26.40
2014,07,11,13,36,26.40
2014,07,11,13,37,26.40
2014,07,11,13,38,26.40
2014,07,11,13,39,26.40
2014,07,11,13,40,26.50
2014,07,11,13,41,26.50
2014,07,11,13,42,26.50
2014,07,11,13,43,26.60
2014,07,11,13,44,26.60
2014,07,11,13,45,26.60
2014,07,11,13,46,26.60
2014,07,11,13,47,26.60
2014,07,11,13,48,26.70
2014,07,11,13,49,26.80
2014,07,11,13,50,26.80
2014,07,11,13,51,26.80
2014,07,11,13,52,26.90
2014,07,11,13,53,26.90
2014,07,11,13,54,27.00
2014,07,11,13,55,27.00
2014,07,11,13,56,27.10
2014,07,11,13,57,27.10
2014,07,11,13,58,27.20
2014,07,11,13,59,27.20
2014,07,11,14,00,27.20
2014,07,11,14,01,27.10
2014,07,11,14,02,27.10
2014,07,11,14,03,27.10
2014,07,11,14,04,27.10
2014,07,11,14,05,27.10
2014,07,11,14,06,27.10
2014,07,11,14,07,27.20
2014,07,11,14,08,27.30
2014,07,11,14,09,27.40
2014,07,11,14,10,27.40
2014,07,11,14,11,27.40
2014,07,11,14,12,27.30
2014,07,11,14,13,27.30
2014,07,11,14,14,27.30
2014,07,11,14,15,27.20
2014,07,11,14,16,27.20
2014,07,11,14,17,27.10
2014,07,11,14,18,27.10
2014,07,11,14,19,27.10
2014,07,11,14,20,27.10
2014,07,11,14,21,27.00
2014,07,11,14,22,27.00
2014,07,11,14,23,27.00
2014,07,11,14,24,26.90
2014,07,11,14,25,26.90
2014,07,11,14,26,26.90
2014,07,11,14,27,26.90
2014,07,11,14,28,26.90
2014,07,11,14,29,26.90
2014,07,11,14,30,26.90
2014,07,11,14,31,26.90
2014,07,11,14,32,27.00
2014,07,11,14,33,27.00
2014,07,11,14,34,27.00
2014,07,11,14,35,27.00
2014,07,11,14,36,27.10
2014,07,11,14,37,27.10
2014,07,11,14,38,27.20
2014,07,11,14,39,27.20
2014,07,11,14,40,27.20
2014,07,11,14,41,27.20
2014,07,11,14,42,27.30
2014,07,11,14,43,27.40
2014,07,11,14,44,27.50
2014,07,11,14,45,27.50
2014,07,11,14,46,27.60
2014,07,11,14,47,27.60
2014,07,11,14,48,27.60
2014,07,11,14,49,27.70
2014,07,11,14,50,27.80
2014,07,11,14,51,27.90
2014,07,11,14,52,28.00
2014,07,11,14,53,28.10
2014,07,11,14,54,28.20
2014,07,11,14,55,28.30
2014,07,11,14,56,28.40
2014,07,11,14,57,28.40
2014,07,11,14,58,28.50
2014,07,11,14,59,28.50
2014,07,11,15,00,28.50
2014,07,11,15,01,28.50
2014,07,11,15,02,28.40
2014,07,11,15,03,28.50
2014,07,11,15,04,28.50
2014,07,11,15,05,28.50
2014,07,11,15,06,28.60
2014,07,11,15,07,28.50
2014,07,11,15,08,28.50
2014,07,11,15,09,28.40
2014,07,11,15,10,28.30
2014,07,11,15,11,28.30
2014,07,11,15,12,28.30
2014,07,11,15,13,28.20
2014,07,11,15,14,28.20
2014,07,11,15,15,28.30
2014,07,11,15,16,28.30
2014,07,11,15,17,28.30
2014,07,11,15,18,28.30
2014,07,11,15,19,28.30
2014,07,11,15,20,28.40
2014,07,11,15,21,28.40
2014,07,11,15,22,28.40
2014,07,11,15,23,28.40
2014,07,11,15,24,28.40
2014,07,11,15,25,28.40
2014,07,11,15,26,28.40
2014,07,11,15,27,28.40
2014,07,11,15,28,28.30
2014,07,11,15,29,28.30
2014,07,11,15,30,28.30
2014,07,11,15,31,28.30
2014,07,11,15,32,28.30
2014,07,11,15,33,28.30
2014,07,11,15,34,28.30
2014,07,11,15,35,28.20
2014,07,11,15,36,28.10
2014,07,11,15,37,28.00
2014,07,11,15,38,27.90
2014,07,11,15,39,27.80
2014,07,11,15,40,27.80
2014,07,11,15,41,27.80
2014,07,11,15,42,27.80
2014,07,11,15,43,27.90
2014,07,11,15,44,28.00
2014,07,11,15,45,28.10
2014,07,11,15,46,28.10
2014,07,11,15,47,28.10
2014,07,11,15,48,28.00
2014,07,11,15,49,28.00
2014,07,11,15,50,27.90
2014,07,11,15,51,28.00
2014,07,11,15,52,27.90
2014,07,11,15,53,27.90
2014,07,11,15,54,27.90
2014,07,11,15,55,27.80
2014,07,11,15,56,27.80
2014,07,11,15,57,27.70
2014,07,11,15,58,27.70
2014,07,11,15,59,27.70
2014,07,11,16,00,27.70
2014,07,11,16,01,27.60
2014,07,11,16,02,27.60
2014,07,11,16,03,27.70
2014,07,11,16,04,27.70
2014,07,11,16,05,27.80
2014,07,11,16,06,27.80
2014,07,11,16,07,27.90
2014,07,11,16,08,27.90
2014,07,11,16,09,27.90
2014,07,11,16,10,27.90
2014,07,11,16,11,27.90
2014,07,11,16,12,27.90
2014,07,11,16,13,27.90
2014,07,11,16,14,27.90
2014,07,11,16,15,27.90
2014,07,11,16,16,27.90
2014,07,11,16,17,27.90
2014,07,11,16,18,27.90
2014,07,11,16,19,27.90
2014,07,11,16,20,27.90
2014,07,11,16,21,27.80
2014,07,11,16,22,27.80
2014,07,11,16,23,27.80
2014,07,11,16,24,27.80
2014,07,11,16,25,27.80
2014,07,11,16,26,27.70
2014,07,11,16,27,27.70
2014,07,11,16,28,27.60
2014,07,11,16,29,27.60
2014,07,11,16,30,27.60
2014,07,11,16,31,27.60
2014,07,11,16,32,27.60
2014,07,11,16,33,27.50
2014,07,11,16,34,27.50
2014,07,11,16,35,27.40
2014,07,11,16,36,27.40
2014,07,11,16,37,27.30
2014,07,11,16,38,27.30
2014,07,11,16,39,27.20
2014,07,11,16,40,27.20
2014,07,11,16,41,27.20
2014,07,11,16,42,27.20
2014,07,11,16,43,27.20
2014,07,11,16,44,27.20
2014,07,11,16,45,27.30
2014,07,11,16,46,27.30
2014,07,11,16,47,27.30
2014,07,11,16,48,27.30
2014,07,11,16,49,27.30
2014,07,11,16,50,27.20
2014,07,11,16,51,27.20
2014,07,11,16,52,27.20
2014,07,11,16,53,27.10
2014,07,11,16,54,27.10
2014,07,11,16,55,27.10
2014,07,11,16,56,27.10
2014,07,11,16,57,27.10
2014,07,11,16,58,27.20
2014,07,11,16,59,27.20
2014,07,11,17,00,27.30
2014,07,11,17,01,27.30
2014,07,11,17,02,27.40
2014,07,11,17,03,27.40
2014,07,11,17,04,27.40
2014,07,11,17,05,27.50
2014,07,11,17,06,27.50
2014,07,11,17,07,27.50
2014,07,11,17,08,27.50
2014,07,11,17,09,27.60
2014,07,11,17,10,27.60
2014,07,11,17,11,27.60
2014,07,11,17,12,27.70
2014,07,11,17,13,27.70
2014,07,11,17,14,27.70
2014,07,11,17,15,27.60
2014,07,11,17,16,27.60
2014,07,11,17,17,27.60
2014,07,11,17,18,27.50
2014,07,11,17,19,27.40